www.pogodaiklimat.ru

Погода и климат >> Архив погоды >> Корея >> Порён


ПОГОДА в Порёне

  • Прогноз погоды в Порёне
  • Монитор погоды в Порёне

АРХИВ ПОГОДЫ в Порёне

Время (UTC), дата Ветер
(напр.,м/с)
 
Видим.   Явления Облачность Т
(С)
Тd
(С)
f
(%)
Тe
(С)
Тes
(С)
Комфортность P
(гПа)
Po
(гПа)
Тmin
(С)
Tmax
(С)
R
(мм)
R24
(мм)
S
(см)
12 17.06 штиль 0 13 км 8/0
[]
+17.9 +15.1 84 +18 +18 1011.9 1010.7 +22.9
15 17.06 Ю 3 8000 м 4/0
[]
+17.4 +15.5 89 +17 +17 1011.6 1010.4
18 17.06 штиль 0 20 км 8/0
[]
+16.6 +14.2 86 +16 +16 1011.1 1009.9
21 17.06 Ю 1 19 км 8/1 1500 м
[]
+19.0 +13.8 72 +21 +21 комфорт 1010.6 1009.4
00 18.06 Ю 3 13 км 8/8 300 м
[]
+22.2 +16.6 71 +27 +28 душно 1011.6 1010.4 +16.1
03 18.06 ЮЗ 3 13 км 9/3 300 м
[]
+23.5 +18.3 73 +28 +35 душно 1010.8 1009.7
06 18.06 Ю 4 11 км 9/9 300 м
[]
+22.6 +18.3 77 +28 +33 душно 1009.1 1008.0
09 18.06 ЮЗ 2 11 км 8/3 1000 м
[]
+21.9 +17.0 74 +26 +27 душно 1008.9 1007.7
12 18.06 штиль 0 4700 м 8/0
[]
+19.5 +17.9 90 +22 +22 комфорт 1009.9 1008.7 +24.1 0.0
15 18.06 штиль 0 2800 м 10/6
[]
+19.0 +18.0 94 +21 +21 комфорт 1009.1 1007.9
18 18.06 2300 м 8/8 200 м
[]
+18.5 +17.5 94 1007.9 1006.7
21 18.06 2000 м н/о +19.1 +17.9 93 1008.4 1007.2
00 19.06 С 2 10 км 8/8 600 м
[]
+21.2 +17.2 78 +25 +27 комфорт 1008.3 1007.1 +18.2 0.0
03 19.06 СВ 1 15 км 8/1
[]
+24.5 +16.2 60 +28 +41 душно 1007.0 1005.9
06 19.06 З 1 16 км 6/0
[]
+25.6 +17.7 62 +30 +42 душно 1006.2 1005.1
09 19.06 ЮЗ 1 18 км 3/0
[]
+22.1 +16.5 71 +26 +29 душно 1006.1 1005.0
12 19.06 штиль 0 10 км 3/0
[]
+19.4 +16.9 85 +21 +21 комфорт 1006.9 1005.7 +27.0
15 19.06 штиль 0 5000 м 4/0
[]
+18.1 +16.9 93 +18 +18 1007.5 1006.3
18 19.06 штиль 0 6000 м 6/0
[]
+17.5 +16.5 94 +17 +17 1006.9 1005.7
21 19.06 штиль 0 4100 м 6/6 300 м
[]
+17.1 +16.1 94 +17 +17 1007.4 1006.2
00 20.06 С 2 7000 м 6/6 300 м
[]
+22.4 +17.5 74 +27 +32 душно 1007.6 1006.5 +16.7
03 20.06 СЗ 1 15 км 8/1 1000 м
[]
+25.1 +17.5 63 +29 +43 душно 1006.8 1005.7
06 20.06 З 1 18 км 5/0
[]
+25.6 +17.5 61 +30 +43 душно 1005.6 1004.5
09 20.06 З 1 18 км 4/0
[]
+23.0 +17.2 70 +28 +31 душно 1005.5 1004.4
12 20.06 штиль 0 11 км 8/0
[]
+19.9 +17.4 86 +22 +22 комфорт 1007.3 1006.1 +26.1
15 20.06 штиль 0 10 км 10/1 600 м
[]
+20.0 +17.5 86 +23 +23 комфорт 1006.9 1005.7
18 20.06 штиль 0 9000 м 8/8 600 м
[]
+19.7 +17.8 89 +22 +22 комфорт 1006.1 1004.9
21 20.06 штиль 0 6000 м 10// 600 м
[]
+19.4 +17.7 90 +21 +22 комфорт 1006.1 1004.9
00 21.06 В 1 13 км 6/6 600 м
[]
+22.9 +15.7 64 +27 +32 душно 1005.6 1004.5 +18.5
03 21.06 З 2 13 км 4/4 600 м
[]
+24.6 +16.8 62 +28 +41 душно 1005.4 1004.3
06 21.06 З 1 18 км 3/0
[]
+24.9 +17.1 62 +29 +44 душно 1004.3 1003.2
09 21.06 СЗ 1 15 км 1/0
[]
+23.0 +17.2 70 +28 +31 душно 1004.0 1002.9
12 21.06 С 2 13 км 8/8 2000 м
[]
+20.9 +17.5 81 +25 +25 комфорт 1005.4 1004.2
15 21.06 С 2 7000 м 5/1 2000 м
[]
+20.3 +17.3 83 +24 +24 комфорт 1005.8 1004.6
18 21.06 С 2 4100 м 6/0
[]
+19.2 +17.5 90 +22 +22 комфорт 1004.9 1003.7
21 21.06 штиль 0 2600 м 6/1 1000 м
[]
+18.6 +17.4 93 +20 +20 1005.5 1004.3
00 22.06 6000 м 6/6 1000 м
[]
+22.8 +17.9 74 1005.8 1004.7 +18.4
03 22.06 Ю 3 5000 м 5/0
[]
+23.6 +18.0 71 +28 +41 душно 1005.9 1004.8
06 22.06 Ю 3 5000 м 6/6 300 м
[]
+24.5 +18.6 70 +29 +37 душно 1005.0 1003.9
09 22.06 штиль 0 7000 м 1/0
[]
+23.1 +17.5 71 +28 +32 душно 1004.4 1003.3
12 22.06 Ю 1 8000 м 8/0 2000 м
[]
+20.3 +16.3 78 +24 +24 комфорт 1006.0 1004.8 +25.6
15 22.06 ЮЗ 1 9000 м 6/1 2000 м
[]
+18.6 +15.6 83 +21 +21 комфорт 1006.5 1005.3
18 22.06 4400 м 4/0
[]
+17.3 +15.9 91 1006.4 1005.2
21 22.06 3600 м н/о +18.2 +16.8 92 +19 +19 1007.3 1006.1
00 23.06 С 2 7000 м 1/0
[]
+23.1 +17.3 70 +28 +38 душно 1007.6 1006.5 +16.8
03 23.06 ЮЗ 3 9000 м 1/0
[]
+24.8 +17.5 64 +29 +45 душно 1007.3 1006.2
06 23.06 ЮЗ 2 12 км 6/0 2000 м
[]
+24.8 +18.0 66 +29 +35 душно 1007.4 1006.3
09 23.06 ЮЗ 2 14 км 1/0
[]
+23.5 +16.5 65 +27 +29 душно 1007.3 1006.2
12 23.06 штиль 0 19 км 1/0
[]
+19.6 +14.8 74 +21 +21 комфорт 1008.5 1007.3 +26.4
15 23.06 СВ 1 18 км ясно +18.7 +15.3 81 +21 +21 комфорт 1009.0 1007.8
18 23.06 штиль 0 18 км 3/0
[]
+16.7 +14.8 89 +17 +17 1009.7 1008.5
21 23.06 СВ 1 20 км 3/0
[]
+17.4 +14.0 80 +18 +19 1010.6 1009.4
00 24.06 Ю 2 16 км ясно +22.7 +16.4 68 +27 +37 душно 1012.1 1011.0 +16.5
03 24.06 ЮЗ 3 20 км 1/0
[]
+24.7 +13.8 51 +27 +43 жарко 1012.3 1011.2
06 24.06 Ю 4 19 км 1/0
[]
+26.2 +16.1 54 +30 +39 душно 1011.8 1010.7

 

Местоположение метеостанции Порён (Корея): широта 36.33 долгота 126.55 высота над уровнем моря 19 м.

В архиве по умолчанию представлена погода в Порёне за последнюю неделю. Архивные данные за месяц целиком и за предыдущие месяцы, начиная с января 2011 года, Вы можете получить, выбрав интересующий диапазон дат из раскрывающегося списка и нажав кнопку "Ввод!".


*Определитесь, кто Вы:
робот инопланетянин человек

Внимание! Время в таблицах - всемирное. Для получения местного времени необходимо прибавить поправку, которая равна 9 ч.

Смотрите также архив погоды в соседних городах и на ближайших метеорологических станциях:

Погода в Хонсоне (Корея) (39 км)
Погода в Кунсане (Корея) (41 км)
Погода в Сосане (Корея) (49 км)
Погода в Чхонане (Корея) (71 км)
Погода в Тэджоне (Корея) (73 км)
Погода в Чонджу (Корея) (78 км)
Погода на Базе Camp Humphreys (Корея) (81 км)
Погода в Чхонджу (Корея) (87 км)
Погода в Чоныпе (Корея) (91 км)
Погода в Кочхане (Корея) (101 км)

Пояснения к столбцам:

Ветер - указаны скорость ветра в м/с - средняя за 10 мин, порывы в срок и между сроками (в фигурных скобках) и направление, откуда дует ветер: С - северный, СВ - северо-восточный, В - восточный, ЮВ - юго-восточный, Ю - южный, ЮЗ - юго-западный, З - западный, СЗ - северо-западный.
Видимость - горизонтальная дальность видимости в метрах или километрах. При видимости от 1 до 10 км при отсутствии осадков обычно наблюдается дымка, при ухудшении видимости до 1 км и менее - туман. В сухую погоду видимость может ухудшаться дымом, пылью или мглою.
Явления - указаны атмосферные явления, наблюдавшиеся в срок или в последний час перед сроком; фигурными скобками обозначены явления, наблюдавшиеся между сроками (за 1-3 часа до срока); квадратными скобками обозначены град или гололедные отложения с указанием их диаметра в мм.
Облачность - указаны через наклонную черту общая и нижняя облачность в баллах и высота нижней границы облаков в метрах; квадратными скобками обозначены формы облаков: Ci - перистые, Cs - перисто-слоистые, Cc - перисто-кучевые, Ac - высококучевые, As - высокослоистые, Sc - слоисто-кучевые, Ns - слоисто-дождевые, Cu - кучевые, Cb - кучево-дождевые. Подробнее классификацию облаков см. в Атласе облаков (PDF).
T - Температура воздуха - температура, измеренная на высоте 2 м над землей.
Td - Температура точки росы - температура, при понижении до которой содержащийся в воздухе водяной пар достигнет насыщения.
f - Относительная влажность воздуха - влажноcть воздуха, измеренная на высоте 2 м над землей.
Te - Эффективная температура - температура, которую ощущает одетый по сезону человек в тени. Характеристика душности погоды. При расчете учитывается влияние влажности воздуха и скорости ветра на теплоощущения человека.
Tes - Эффективная температура на солнце - температура, которую ощущает человек, с поправкой на солнечный нагрев. Характеристика знойности погоды. Зависит от высоты солнца над горизонтом, облачности и скорости ветра. Ночью, в пасмурную погоду, а также при ветре 12 м/с и более поправка равна нулю.
P - Атмосферное давление - приведенное к уровню моря атмосферное давление.
Po - Атмосферное давление - измеренное на уровне метеостанции атмосферное давление.
Tmin - Минимальная температура - минимум температуры воздуха на высоте 2 м над землей.
Tmax - Максимальная температура - максимум температуры воздуха на высоте 2 м над землей.
R - Количество осадков - Количество выпавших осадков за период времени, мм. При наведении курсора мыши на число - период времени, за который выпало указанное количество осадков.
R24 - Количество осадков - Количество выпавших осадков за 24 часа, мм.
S - Снежный покров - Высота снежного покрова, см. При наведении курсора мыши на число - состояние снежного покрова и степень покрытия местности в баллах.